Location: Brantley
(31.5822°N, 86.2569°W)
Time: 07:14:28
(UTC+00:00)

Courier 1B Rocket - Pass Details

Date: 21 February 2026
Orbit: 920 x 1201 km, 28.2° (Epoch: 9 March)

Event Time Altitude Azimuth Distance (km) Brightness Sun altitude
Rises 21:53:56 0° 226° (SW) 3,632 9.3 19.9°
Reaches altitude 10° 21:56:58 10° 215° (SW) 2,654 8.5 19.3°
Maximum altitude 22:02:17 28° 157° (SSE) 1,644 6.4 18.3°
Drops below altitude 10° 22:07:30 10° 100° (E) 2,602 6.8 17.3°
Sets 22:10:26 0° 89° (E) 3,550 7.4 16.7°
